EW1392 Weather Reports


Display with metric or nautical units.
time (UTC)temp
F
wind
direction
speed
MPH
gust
MPH
rain 1hr
in
rain 24hr
in
rain mn
in
humidity
%
barometer
mb
20260905134509 35 5 0.0 0.0 0.00 0.05 0.00 95 1018.2
20260905133010 36 5 0.0 0.0 0.00 0.05 0.00 96 1018.2
20260905131507 36 5 0.0 0.0 0.00 0.05 0.00 95 1018.3
20260905130006 36 5 0.0 0.0 0.00 0.05 0.00 95 1018.1
20260905124505 36 5 0.0 0.0 0.00 0.07 0.00 95 1018.1
20260905123004 36 5 0.0 0.0 0.00 0.07 0.00 95 1018.1
20260905121503 37 5 0.0 0.0 0.00 0.07 0.00 95 1017.9
20260905120002 37 5 0.0 0.0 0.00 0.07 0.00 95 1018.1
20260905114601 37 5 0.0 0.0 0.00 0.09 0.00 95 1018.0
20260905113059 37 5 0.0 0.0 0.00 0.09 0.00 95 1017.8
20260905111610 37 5 0.0 0.0 0.00 0.09 0.00 95 1017.7
20260905110100 37 5 0.0 0.0 0.00 0.09 0.00 95 1017.7
20260905104555 38 5 0.0 0.0 0.00 0.13 0.00 95 1017.6
20260905103054 38 5 0.0 0.0 0.00 0.13 0.00 95 1017.5
20260905101551 38 5 0.0 0.0 0.00 0.13 0.00 95 1017.6
20260905100053 38 5 0.0 0.0 0.00 0.13 0.00 94 1017.5
20260905094549 38 5 0.0 0.0 0.00 0.20 0.00 94 1017.5
20260905093047 39 5 0.0 0.0 0.00 0.20 0.00 94 1017.3
20260905091614 39 5 0.0 0.0 0.00 0.20 0.00 94 1017.2
20260905090042 39 5 0.0 0.0 0.00 0.20 0.00 94 1017.1
20260905084541 40 5 0.0 0.0 0.00 0.28 0.00 94 1017.1
20260905083040 40 5 0.0 0.0 0.00 0.28 0.00 94 1017.0
20260905081537 40 5 0.0 0.0 0.00 0.28 0.00 94 1016.9
20260905080047 41 5 0.0 0.0 0.00 0.28 0.00 94 1016.8
20260905074534 41 5 0.0 0.0 0.00 0.28 0.00 94 1016.7
20260905073032 41 5 0.0 0.0 0.00 0.28 0.00 94 1016.6
20260905071530 42 5 0.0 0.0 0.00 0.28 0.00 94 1016.4
20260905070027 42 5 0.0 0.0 0.00 0.28 0.00 93 1016.4
20260905064526 42 5 0.0 0.0 0.00 0.28 0.28 93 1016.2
20260905063025 43 5 0.0 0.0 0.00 0.28 0.28 93 1016.1
20260905061524 43 5 0.0 0.0 0.00 0.28 0.28 92 1016.1
20260905060024 44 5 0.0 0.0 0.00 0.28 0.28 92 1016.1
20260905054523 44 5 0.0 0.0 0.00 0.28 0.28 92 1016.0
20260905053022 45 5 0.0 0.0 0.00 0.28 0.28 91 1016.0
20260905051525 45 5 0.0 0.0 0.00 0.28 0.28 91 1015.9
20260905050026 46 5 0.0 0.0 0.00 0.28 0.28 90 1015.8
20260905044526 46 5 0.0 0.0 0.00 0.28 0.28 90 1015.9
20260905043025 47 5 0.0 0.0 0.00 0.28 0.28 89 1015.9
20260905041520 48 5 0.0 0.0 0.00 0.28 0.28 88 1015.8
20260905040017 49 5 0.0 0.0 0.00 0.28 0.28 87 1015.6
20260905034519 49 5 0.0 0.0 0.00 0.28 0.28 86 1015.4
20260905033028 50 5 0.0 0.0 0.00 0.28 0.28 84 1015.3
20260905031514 52 5 0.0 0.0 0.00 0.28 0.28 81 1015.2
20260905030022 53 5 0.0 0.0 0.00 0.28 0.28 79 1015.0
20260905024512 54 5 0.0 0.0 0.00 0.28 0.28 78 1014.7
20260905023010 56 5 0.0 0.0 0.00 0.28 0.28 74 1014.7
20260905021509 58 5 0.0 0.0 0.00 0.28 0.28 71 1014.7
20260905020010 59 5 0.0 0.0 0.00 0.28 0.28 65 1014.6
20260905014508 60 5 0.0 0.0 0.00 0.28 0.28 63 1014.6
20260905013007 60 5 0.0 3.0 0.00 0.28 0.28 67 1014.5
20260905011505 60 18 0.0 0.0 0.00 0.28 0.28 68 1014.4
20260905010004 60 18 0.0 0.0 0.00 0.28 0.28 66 1014.3
20260905004504 61 21 0.0 3.0 0.00 0.28 0.28 62 1014.3
20260905003002 61 31 0.0 3.0 0.00 0.28 0.28 62 1014.1
20260905001504 61 229 0.0 3.0 0.00 0.28 0.28 64 1013.9
20260905000112 62 228 0.0 2.0 0.00 0.28 0.28 61 1013.9
20260904234601 62 351 0.0 5.0 0.00 0.28 0.28 60 1013.9
20260904233118 62 11 0.0 3.0 0.00 0.28 0.28 59 1013.6
20260904231605 62 296 0.0 1.0 0.00 0.28 0.28 63 1013.7
20260904230058 62 299 0.0 2.0 0.00 0.28 0.28 62 1013.4
20260904224558 62 254 0.0 2.0 0.00 0.28 0.28 64 1013.3
20260904223122 62 136 0.0 3.0 0.00 0.28 0.28 64 1013.3
20260904221558 62 5 0.0 0.0 0.00 0.28 0.28 62 1013.2
20260904220052 62 360 0.0 1.0 0.00 0.28 0.28 65 1013.3
20260904214548 61 355 0.0 1.0 0.00 0.28 0.28 64 1013.5
20260904213047 59 29 0.0 0.0 0.00 0.28 0.28 72 1013.5
20260904211543 59 31 0.0 1.0 0.00 0.28 0.28 76 1013.4
20260904210057 59 11 0.0 1.0 0.00 0.28 0.28 71 1013.3
20260904204540 58 360 0.0 1.0 0.00 0.28 0.28 82 1013.2
20260904203039 58 360 0.0 0.0 0.03 0.28 0.28 82 1013.1
20260904201538 58 331 0.0 0.0 0.03 0.28 0.28 80 1012.9
20260904200039 59 331 0.0 0.0 0.03 0.28 0.28 79 1012.7
20260904194536 59 331 0.0 0.0 0.03 0.28 0.28 75 1012.6
20260904193036 59 329 0.0 0.0 0.00 0.26 0.25 83 1012.6
20260904191540 59 329 0.0 0.0 0.00 0.26 0.25 82 1012.4
20260904190036 59 201 0.0 2.0 0.00 0.26 0.25 78 1012.3
20260904184530 58 152 0.0 2.0 0.00 0.26 0.25 90 1012.4
20260904183027 57 86 0.0 0.0 0.00 0.26 0.25 91 1012.4
20260904181530 55 86 0.0 1.0 0.00 0.26 0.25 85 1012.5
20260904180020 55 88 0.0 0.0 0.00 0.26 0.25 93 1012.5
20260904174517 54 88 0.0 0.0 0.00 0.26 0.25 96 1012.5
20260904173033 53 88 0.0 0.0 0.00 0.26 0.25 98 1012.6
20260904171512 52 88 0.0 0.0 0.00 0.26 0.25 99 1012.6
20260904170009 51 88 0.0 0.0 0.00 0.26 0.25 99 1012.7
20260904164507 50 88 0.0 0.0 0.00 0.26 0.25 99 1012.7
20260904163004 49 88 0.0 0.0 0.00 0.26 0.25 98 1012.8
20260904161610 48 88 0.0 0.0 0.00 0.26 0.25 98 1012.9
20260904154555 45 88 0.0 0.0 0.00 0.26 0.25 98 1012.8
20260904153058 45 88 0.0 0.0 0.00 0.26 0.25 98 1012.7
20260904151557 44 88 0.0 0.0 0.01 0.26 0.25 98 1012.6
20260904150053 44 88 0.0 0.0 0.01 0.26 0.25 98 1012.5
20260904144607 43 88 0.0 0.0 0.01 0.26 0.25 98 1012.5
20260904143058 42 88 0.0 0.0 0.01 0.26 0.25 97 1012.3
20260904141549 42 88 0.0 0.0 0.01 0.25 0.24 97 1012.1
20260904140046 42 88 0.0 0.0 0.01 0.25 0.24 97 1011.9